[[{"header":{"parameterUnit":"m.s-1","parameterCategory":1,"la1":30.2991,"la2":30.254,"lo1":-89.0895,"lo2":-89.0444,"dy":0.0017,"dx":0.0017,"nx":28,"ny":28,"refTime":"2024-10-17T09:00:00:Z","depth":0,"parameterNumber":2,"parameterNumberName":"U-component_of_WINDS"},"data":[0,0,0,0,0,0,0,0,0,0,0,0,0,0,0,0,0,0,0,0,0,0,0,0,0,0,0,0,0,0,0,0,0,0,0,0,0,0,0,0,0,0,0,0,0,0,0,0,0,0,0,0,0,0,0,0,0,0,-2.8535,-2.8536,0,-2.8591,-2.8591,-2.8592,-2.8458,-2.8454,-2.845,-2.8446,-2.8503,-2.8509,-2.8514,0,0,0,0,0,0,0,0,0,0,0,0,0,-2.8314,-2.8318,-2.8535,-2.8536,-2.8537,-2.859,-2.8591,-2.8592,-2.8459,-2.8454,-2.8448,-2.8444,-2.8501,-2.8508,-2.8514,0,0,0,0,0,0,0,0,0,0,0,0,0,-2.8394,-2.832,-2.8535,-2.8477,-2.8472,-2.859,-2.8591,-2.8592,-2.846,-2.8453,-2.8447,-2.8441,-2.8499,-2.8507,-2.8515,-2.8693,0,0,-2.8541,-2.8544,0,0,0,0,0,0,0,0,-2.8389,-2.8402,-2.8484,-2.8481,-2.8476,-2.8511,-2.8534,-2.8626,-2.8461,-2.8465,-2.8445,-2.8438,-2.8511,-2.8518,-2.8542,-2.8696,-2.8699,-2.8541,-2.8546,-2.855,-2.8552,0,0,0,0,0,0,0,-2.8384,-2.8399,-2.8557,-2.8486,-2.8481,-2.8447,-2.8452,-2.8551,-2.8523,-2.8464,-2.8454,-2.8462,-2.8507,-2.8535,-2.8543,-2.8699,-2.8541,-2.8548,-2.8553,-2.8557,-2.9003,-2.9009,0,0,0,0,0,0,-2.8386,-2.8395,-2.8555,-2.8559,-2.8416,-2.8457,-2.8461,-2.8506,-2.8521,-2.8517,-2.8468,-2.8456,-2.8524,-2.8533,-2.8544,-2.8755,-2.855,-2.8557,-2.8562,-2.8996,-2.9004,-2.9012,0,0,0,0,0,0,-2.8382,-2.8401,-2.8553,-2.8474,-2.8491,-2.8467,-2.8518,-2.851,-2.8538,-2.8524,-2.8519,-2.8501,-2.8519,-2.8533,-2.8657,-2.8755,-2.8561,-2.8569,-2.8988,-2.8998,-2.9008,-2.9179,0,0,0,0,0,0,-2.8376,-2.8401,-2.8469,-2.8477,-2.8496,-2.8666,-2.8524,-2.8516,-2.8552,-2.8537,-2.8554,-2.8551,-2.8515,-2.8646,-2.8666,-2.8763,-2.8575,-2.8979,-2.8992,-2.9005,-2.9164,-2.9193,-2.9219,0,0,0,0,0,-2.8368,-2.8514,-2.8473,-2.8493,-2.858,-2.8672,-2.8683,-2.8639,-2.856,-2.8629,-2.862,-2.855,-2.874,-2.866,-2.8681,-2.8783,-2.8973,-2.8989,-2.9004,-2.9152,-2.9188,-2.9218,0,0,0,0,0,0,-2.8519,-2.8514,-2.8468,-2.8621,-2.8648,-2.8649,-2.8734,-2.8678,-2.8728,-2.8712,-2.8655,-2.866,-2.8796,-2.88,-2.8711,-2.8956,-2.8843,-2.8864,-2.8949,-2.8983,-2.9009,-2.9007,-2.8582,0,0,0,0,0,-2.8569,-2.8645,-2.8636,-2.8772,-2.8788,-2.8759,-2.8797,-2.8761,-2.8786,-2.8797,-2.8798,-2.8826,-2.8891,-2.8936,-2.8996,-2.9162,-2.9165,-2.9242,-2.9269,-2.9292,-2.9312,-2.9402,-2.9437,-2.9063,-2.9063,-2.9062,0,0,-2.8676,-2.8682,-2.8734,-2.8803,-2.8819,-2.8899,-2.877,-2.8859,-2.8918,-2.8811,-2.893,-2.8931,-2.8958,-2.9105,-2.9169,-2.9113,-2.9415,-2.9312,-2.933,-2.9338,-2.9421,-2.9457,-2.9488,-2.9073,-2.9071,-2.907,0,0,-2.8911,-2.8922,-2.9038,-2.9057,-2.9083,-2.9062,-2.909,-2.91,-2.9097,-2.9214,-2.9136,-2.9204,-2.9319,-2.9342,-2.9368,-2.961,-2.9549,-2.9631,-2.9775,-2.9863,-2.9893,-2.9919,-3.0008,-3.004,-2.9649,-2.965,-2.965,0,-2.904,-2.9157,-2.9104,-2.92,-2.9233,-2.9138,-2.9255,-2.9275,-2.932,-2.9346,-2.928,-2.9423,-2.9434,-2.9586,-2.9645,-2.9668,-2.9699,-2.9631,-2.9892,-2.9918,-2.9941,-3.0026,-3.0059,-2.966,-2.9659,-2.9658,-2.9657,0,-2.9316,-2.9398,-2.9487,-2.9534,-2.9576,-2.9682,-2.9645,-2.9694,-2.9653,-2.9639,-2.976,-2.977,-2.9831,-2.9863,-2.9824,-3.001,-2.9974,-2.9902,-2.9789,-2.9988,-3.0067,-3.0098,-2.9674,-2.9671,-2.9668,-2.9665,0,0,-2.9652,-2.9665,-2.97,-2.972,-2.9741,-2.9803,-2.9904,-2.9963,-3.0007,-3.004,-3.0125,-3.0222,-3.0156,-3.0186,-3.0148,-3.0225,-3.0419,-3.0143,-3.0142,-3.0197,-3.0627,-3.0685,-3.0723,-3.0376,-3.0382,-3.0386,-3.0626,0,-2.9887,-3.0061,-3.0015,-3.0189,-3.0265,-3.0174,-3.0262,-3.0285,-3.0274,-3.0336,-3.0323,-3.0395,-3.03,-3.0318,-3.0389,-3.038,-3.0505,-3.0361,-3.0456,-3.046,-3.0457,-3.0764,-3.0825,-3.1051,-3.0656,-3.0661,-3.0665,0,-3.0185,-3.023,-3.0412,-3.0421,-3.0451,-3.0531,-3.0581,-3.0642,-3.0665,-3.0651,-3.0685,-3.0631,-3.073,-3.0612,-3.075,-3.0653,-3.0688,-3.0689,-3.0697,-3.0708,-3.0579,-3.0787,-3.1122,-3.1158,-3.0712,-3.0708,-3.0705,0,-3.0417,-3.0522,-3.0644,-3.0664,-3.0676,-3.0735,-3.0743,-3.0759,-3.0798,-3.0841,-3.0866,-3.092,-3.0951,-3.0994,-3.0956,-3.0874,-3.1101,-3.0979,-3.1094,-3.1096,-3.115,-3.1148,-3.15,-3.1166,-3.1165,-3.1164,-3.1164,0,-3.0687,-3.0803,-3.0749,-3.0825,-3.0951,-3.0896,-3.1023,-3.102,-3.1036,-3.111,-3.1032,-3.1104,-3.1047,-3.1113,-3.1083,-3.1203,-3.1216,-3.121,-3.1201,-3.1219,-3.1221,-3.1245,-3.123,-3.1173,-3.1171,-3.117,-3.1168,0,-3.0969,-3.0937,-3.1066,-3.1066,-3.1069,-3.1163,-3.1163,-3.1233,-3.1215,-3.1309,-3.1328,-3.1301,-3.1374,-3.1339,-3.1416,-3.1396,-3.1551,-3.1519,-3.1545,-3.1538,-3.1657,-3.1648,-3.204,-3.209,-3.172,-3.1723,-3.1726,0,-3.1146,-3.1233,-3.1243,-3.1287,-3.13,-3.1371,-3.141,-3.1358,-3.1401,-3.1434,-3.1501,-3.1567,-3.1619,-3.174,-3.1728,-3.1786,-3.1758,-3.1891,-3.1766,-3.1782,-3.1764,-3.1762,-3.1771,-3.1918,-3.1922,-3.1925,-3.1928,0,-3.1465,-3.1445,-3.1503,-3.1558,-3.1606,-3.1645,-3.1678,-3.1718,-3.1667,-3.172,-3.1794,-3.1834,-3.1912,-3.198,-3.203,-3.2038,-3.1977,-3.1967,-3.1997,-3.2019,-3.2032,-3.2031,-3.1618,-3.1959,-3.1956,-3.1954,-3.1952,-3.1951,-3.1703,-3.1776,-3.1795,-3.1863,-3.1882,-3.1914,-3.1981,-3.1971,-3.2032,-3.2092,-3.2056,-3.2144,-3.2163,-3.2225,-3.2241,-3.2309,-3.2256,-3.2299,-3.2311,-3.2324,-3.2342,-3.2017,-3.2317,-3.2316,-3.2315,-3.2314,-3.2314,0,-3.2021,-3.2028,-3.2091,-3.214,-3.2193,-3.2127,-3.216,-3.221,-3.2288,-3.2311,-3.2363,-3.2449,-3.2514,-3.2505,-3.2564,-3.2621,-3.2594,-3.2638,-3.2636,-3.264,-3.2383,-3.2353,-3.2659,-3.2659,-3.2659,-3.2659,-3.2659,-3.2659,-3.2194,-3.2316,-3.2297,-3.2427,-3.2432,-3.2518,-3.2543,-3.2572,-3.2591,-3.269,-3.2744,-3.2737,-3.2748,-3.2807,-3.2864,-3.2859,-3.2887,-3.2943,-3.2929,-3.2691,-3.2657,-3.2625,-3.2596,-3.2948,-3.2949,-3.318,-3.3182,-3.3184]},{"header":{"parameterUnit":"m.s-1","parameterCategory":1,"la1":30.2991,"la2":30.254,"lo1":-89.0895,"lo2":-89.0444,"dy":0.0017,"dx":0.0017,"nx":28,"ny":28,"refTime":"2024-10-17T09:00:00:Z","depth":0,"parameterNumber":3,"parameterNumberName":"V-component_of_WINDS"},"data":[0,0,0,0,0,0,0,0,0,0,0,0,0,0,0,0,0,0,0,0,0,0,0,0,0,0,0,0,0,0,0,0,0,0,0,0,0,0,0,0,0,0,0,0,0,0,0,0,0,0,0,0,0,0,0,0,0,0,-5.4841,-5.4842,0,-5.4924,-5.4925,-5.4926,-5.4863,-5.486,-5.4858,-5.4855,-5.4935,-5.4939,-5.4944,0,0,0,0,0,0,0,0,0,0,0,0,0,-5.462,-5.4624,-5.4841,-5.4842,-5.4843,-5.4924,-5.4925,-5.4926,-5.4863,-5.486,-5.4857,-5.4854,-5.4933,-5.4939,-5.4944,0,0,0,0,0,0,0,0,0,0,0,0,0,-5.4711,-5.4626,-5.4841,-5.4821,-5.482,-5.4924,-5.4925,-5.4927,-5.4864,-5.486,-5.4856,-5.4852,-5.4931,-5.4938,-5.4945,-5.507,0,0,-5.4966,-5.497,0,0,0,0,0,0,0,0,-5.4706,-5.4719,-5.4823,-5.4823,-5.4822,-5.4879,-5.4877,-5.4975,-5.4865,-5.4847,-5.4855,-5.485,-5.4919,-5.4927,-5.4951,-5.5074,-5.5077,-5.4967,-5.4971,-5.4974,-5.4976,0,0,0,0,0,0,0,-5.4699,-5.4715,-5.4874,-5.4825,-5.4824,-5.4806,-5.4815,-5.4895,-5.4905,-5.4849,-5.4844,-5.4855,-5.4918,-5.4945,-5.4953,-5.5078,-5.4967,-5.4973,-5.4977,-5.498,-5.5305,-5.5309,0,0,0,0,0,0,-5.4696,-5.471,-5.4871,-5.4876,-5.4753,-5.4814,-5.4823,-5.4865,-5.4904,-5.4906,-5.4859,-5.4852,-5.4935,-5.4945,-5.4955,-5.5102,-5.4974,-5.4981,-5.4985,-5.53,-5.5306,-5.5311,0,0,0,0,0,0,-5.4691,-5.4711,-5.4868,-5.4792,-5.4811,-5.4822,-5.4869,-5.4869,-5.4895,-5.4912,-5.4913,-5.4885,-5.4932,-5.4945,-5.5042,-5.5104,-5.4984,-5.499,-5.5295,-5.5302,-5.5308,-5.5399,0,0,0,0,0,0,-5.4685,-5.471,-5.4759,-5.4794,-5.4815,-5.4955,-5.4873,-5.4873,-5.4908,-5.49,-5.4936,-5.4938,-5.493,-5.5032,-5.5049,-5.5112,-5.4996,-5.529,-5.5298,-5.5306,-5.539,-5.5408,-5.5423,0,0,0,0,0,-5.4678,-5.478,-5.4762,-5.4782,-5.4877,-5.4959,-5.4971,-5.4961,-5.4914,-5.4962,-5.4972,-5.4937,-5.5095,-5.5042,-5.5061,-5.5127,-5.5286,-5.5296,-5.5306,-5.5383,-5.5404,-5.5422,0,0,0,0,0,0,-5.4751,-5.4785,-5.4764,-5.4882,-5.4918,-5.4948,-5.5009,-5.4984,-5.5033,-5.5023,-5.5007,-5.5015,-5.5116,-5.5131,-5.5072,-5.5249,-5.5182,-5.5197,-5.5235,-5.5256,-5.5271,-5.5265,-5.5002,0,0,0,0,0,-5.4781,-5.4847,-5.4872,-5.4973,-5.4992,-5.4998,-5.5033,-5.5022,-5.5058,-5.5073,-5.509,-5.5125,-5.5182,-5.522,-5.5273,-5.5393,-5.5398,-5.5447,-5.5463,-5.5476,-5.5488,-5.555,-5.5571,-5.5343,-5.5343,-5.5343,0,0,-5.4843,-5.487,-5.4912,-5.4988,-5.5015,-5.5081,-5.5011,-5.5084,-5.5132,-5.5083,-5.5175,-5.5189,-5.5226,-5.5334,-5.5383,-5.535,-5.5553,-5.5489,-5.55,-5.5504,-5.5562,-5.5584,-5.5603,-5.535,-5.5349,-5.5348,0,0,-5.499,-5.5018,-5.5105,-5.5133,-5.5175,-5.5178,-5.5199,-5.5233,-5.524,-5.5333,-5.5297,-5.5353,-5.5452,-5.548,-5.5507,-5.5663,-5.5632,-5.5681,-5.5765,-5.5826,-5.5844,-5.5859,-5.5913,-5.5933,-5.5693,-5.5694,-5.5694,0,-5.5062,-5.5162,-5.5152,-5.5228,-5.5261,-5.5221,-5.5307,-5.5335,-5.5391,-5.5414,-5.5377,-5.55,-5.5523,-5.5635,-5.5674,-5.5698,-5.5719,-5.5676,-5.5842,-5.5858,-5.5872,-5.5923,-5.5944,-5.5699,-5.5698,-5.5698,-5.5697,0,-5.5247,-5.5316,-5.5381,-5.5438,-5.5479,-5.5559,-5.5559,-5.5601,-5.5586,-5.5592,-5.5685,-5.5711,-5.5768,-5.5795,-5.5781,-5.5905,-5.5883,-5.5845,-5.5778,-5.59,-5.5947,-5.5967,-5.5707,-5.5705,-5.5703,-5.5702,0,0,-5.5442,-5.5492,-5.5516,-5.554,-5.5584,-5.5636,-5.5714,-5.5771,-5.5806,-5.5847,-5.5909,-5.5994,-5.5959,-5.5989,-5.5978,-5.6032,-5.6151,-5.5986,-5.5987,-5.6014,-5.6286,-5.6314,-5.6337,-5.6131,-5.6135,-5.6138,-5.6282,0,-5.5589,-5.5726,-5.5719,-5.5846,-5.5909,-5.5872,-5.5939,-5.5971,-5.5979,-5.6031,-5.6038,-5.6098,-5.6048,-5.6066,-5.6117,-5.6126,-5.6205,-5.6115,-5.6186,-5.6189,-5.6177,-5.6362,-5.6391,-5.6526,-5.6301,-5.6304,-5.6307,0,-5.5779,-5.5827,-5.5962,-5.5994,-5.602,-5.6081,-5.6132,-5.6184,-5.6218,-5.622,-5.6254,-5.6234,-5.6309,-5.6242,-5.6344,-5.6283,-5.6312,-5.632,-5.6325,-5.633,-5.6254,-5.6369,-5.657,-5.6589,-5.6336,-5.6334,-5.6332,0,-5.5905,-5.6004,-5.6096,-5.6119,-5.6159,-5.6202,-5.6221,-5.6252,-5.6287,-5.6331,-5.6353,-5.6405,-5.6433,-5.6472,-5.6465,-5.6417,-5.6569,-5.6501,-5.6569,-5.657,-5.6602,-5.6599,-5.6807,-5.6624,-5.6623,-5.6623,-5.6623,0,-5.607,-5.6153,-5.6153,-5.621,-5.6301,-5.629,-5.638,-5.6393,-5.6421,-5.6478,-5.6449,-5.6502,-5.6491,-5.6543,-5.6538,-5.6622,-5.6636,-5.6637,-5.6634,-5.6639,-5.6638,-5.6656,-5.6645,-5.6628,-5.6627,-5.6626,-5.6625,0,-5.6225,-5.6229,-5.6327,-5.6358,-5.6368,-5.6433,-5.6458,-5.651,-5.6515,-5.6587,-5.6603,-5.6611,-5.6671,-5.6668,-5.6736,-5.6732,-5.6835,-5.6823,-5.6824,-5.6821,-5.6888,-5.6881,-5.7113,-5.7142,-5.6942,-5.6944,-5.6945,0,-5.6329,-5.6392,-5.643,-5.6467,-5.6488,-5.6548,-5.6583,-5.6575,-5.6612,-5.6656,-5.6703,-5.6761,-5.6806,-5.6903,-5.6913,-5.6964,-5.6951,-5.7029,-5.6958,-5.696,-5.695,-5.6945,-5.695,-5.7042,-5.7044,-5.7046,-5.7048,0,-5.6512,-5.651,-5.6564,-5.6618,-5.6661,-5.6703,-5.674,-5.6772,-5.6767,-5.681,-5.6872,-5.6908,-5.6977,-5.7034,-5.7083,-5.7099,-5.7072,-5.707,-5.7088,-5.7092,-5.709,-5.709,-5.6859,-5.7064,-5.7063,-5.7062,-5.7061,-5.706,-5.6643,-5.6696,-5.6731,-5.6791,-5.6819,-5.6855,-5.6905,-5.6917,-5.6969,-5.7026,-5.7017,-5.7086,-5.7117,-5.718,-5.7201,-5.7253,-5.7225,-5.7252,-5.7258,-5.7264,-5.7271,-5.7083,-5.7262,-5.7262,-5.7261,-5.7261,-5.726,0,-5.6822,-5.6843,-5.6898,-5.6953,-5.6999,-5.6972,-5.7012,-5.7052,-5.7113,-5.7146,-5.7191,-5.7261,-5.7316,-5.733,-5.7382,-5.7421,-5.741,-5.7435,-5.743,-5.7434,-5.7294,-5.7272,-5.7443,-5.7443,-5.7443,-5.7443,-5.7443,-5.7443,-5.6921,-5.701,-5.7012,-5.7113,-5.7133,-5.7201,-5.7226,-5.7258,-5.7284,-5.7364,-5.741,-5.7419,-5.7444,-5.7497,-5.7545,-5.7548,-5.7567,-5.7597,-5.7594,-5.7463,-5.7444,-5.7427,-5.7406,-5.7602,-5.7602,-5.7729,-5.773,-5.7731]}]]